IBE3232 SBSP-EGLL

Flight info

Callsign IBE3232
Flight time N/A
Altitude 37000
Route NUXEL UZ23 ILPIR UZ72 EDNES UN866 DEKON/N0488F380 UN866 AMDOL/N0480F390 UN866 TENPA N866 ORVEK/N0475F400 DCT PITAB DCT VABEM/N0410F240 UN981 ASMAR UN741 DEMOS N728 STG/N0485F400 DCT KORUL DCT KOLEK DCT ERCOZ DCT DOMOK DCT ORIST DCT ROXOG
Aircraft A359/H-SDE2E3GHIJ3J4J5LM1ORWXY/LB1D1

Departure

Time 2026-05-05 03:52
Airport Congonhas–Deputado Freitas Nobre Airport (SBSP)

Arrival

Time N/A
Airport London Heathrow Airport (EGLL)
Time Latitude Longitude Altitude Speed Heading
2026-05-05 03:32 -23.62414 -46.66015 2607 ft 0 kts 237°
2026-05-05 03:46 -23.62413 -46.66013 2607 ft 3 kts 237°
2026-05-05 03:46 -23.62400 -46.65989 2607 ft 4 kts 243°
2026-05-05 03:46 -23.62391 -46.65968 2607 ft 2 kts 261°
2026-05-05 03:46 -23.62391 -46.65955 2607 ft 2 kts 290°
2026-05-05 03:47 -23.62397 -46.65944 2607 ft 2 kts 313°
2026-05-05 03:47 -23.62405 -46.65936 2607 ft 2 kts 322°
2026-05-05 03:47 -23.62413 -46.65929 2607 ft 2 kts 325°
2026-05-05 03:47 -23.62421 -46.65923 2607 ft 0 kts 326°
2026-05-05 03:49 -23.62419 -46.65925 2607 ft 1 kts 325°
2026-05-05 03:49 -23.62405 -46.65935 2607 ft 5 kts 326°
2026-05-05 03:49 -23.62365 -46.65964 2606 ft 9 kts 328°
2026-05-05 03:49 -23.62301 -46.66007 2606 ft 13 kts 328°
2026-05-05 03:50 -23.62250 -46.66037 2606 ft 8 kts 332°
2026-05-05 03:50 -23.62189 -46.66076 2605 ft 12 kts 329°
2026-05-05 03:50 -23.62107 -46.66128 2604 ft 14 kts 340°
2026-05-05 03:50 -23.62047 -46.66096 2602 ft 5 kts 92°
2026-05-05 03:51 -23.62062 -46.66074 2602 ft 0 kts 141°
2026-05-05 03:51 -23.62084 -46.66055 2603 ft 24 kts 141°
2026-05-05 03:51 -23.62437 -46.65795 2610 ft 95 kts 151°
2026-05-05 03:51 -23.63190 -46.65281 2617 ft 158 kts 148°
2026-05-05 03:52 -23.64213 -46.64574 2987 ft 184 kts 146°
2026-05-05 03:52 -23.65284 -46.63693 3591 ft 201 kts 134°
2026-05-05 03:52 -23.66137 -46.62480 4245 ft 213 kts 113°
2026-05-05 03:52 -23.66775 -46.60927 4533 ft 233 kts 108°
2026-05-05 03:53 -23.67481 -46.59237 4685 ft 255 kts 115°
2026-05-05 03:53 -23.68281 -46.57445 4960 ft 269 kts 113°
2026-05-05 03:53 -23.69092 -46.55571 5357 ft 277 kts 109°
2026-05-05 03:53 -23.69887 -46.53630 5782 ft 283 kts 109°
2026-05-05 03:54 -23.70706 -46.51660 6238 ft 288 kts 110°
2026-05-05 03:54 -23.71446 -46.49656 6770 ft 290 kts 101°
2026-05-05 03:54 -23.71570 -46.47475 7290 ft 292 kts 79°
2026-05-05 03:54 -23.71273 -46.45253 7709 ft 298 kts 75°
2026-05-05 03:55 -23.70913 -46.43020 8299 ft 299 kts 75°
2026-05-05 03:55 -23.70561 -46.40780 8916 ft 300 kts 75°
2026-05-05 03:55 -23.70220 -46.38526 9524 ft 302 kts 76°
2026-05-05 03:55 -23.69873 -46.36256 10073 ft 305 kts 73°
2026-05-05 03:56 -23.69491 -46.33940 10372 ft 315 kts 73°
2026-05-05 03:56 -23.69082 -46.31535 10509 ft 330 kts 71°
2026-05-05 03:56 -23.68634 -46.29013 10580 ft 346 kts 72°
2026-05-05 03:56 -23.68209 -46.26397 10656 ft 361 kts 75°
2026-05-05 03:57 -23.67833 -46.23648 10878 ft 371 kts 77°
2026-05-05 03:57 -23.67482 -46.20848 11281 ft 375 kts 78°
2026-05-05 03:57 -23.67114 -46.18024 11715 ft 378 kts 77°
2026-05-05 03:57 -23.66433 -46.15263 12275 ft 378 kts 62°
2026-05-05 03:58 -23.65010 -46.12853 12681 ft 382 kts 42°
2026-05-05 03:58 -23.62900 -46.11078 13012 ft 386 kts 25°
2026-05-05 03:58 -23.60501 -46.09702 13327 ft 391 kts 21°
2026-05-05 03:58 -23.58056 -46.08378 13770 ft 393 kts 21°
2026-05-05 03:59 -23.55607 -46.07052 14202 ft 394 kts 21°
2026-05-05 03:59 -23.53146 -46.05714 14580 ft 396 kts 21°
2026-05-05 03:59 -23.50671 -46.04362 14918 ft 399 kts 21°
2026-05-05 03:59 -23.48220 -46.03010 15267 ft 401 kts 21°
2026-05-05 04:00 -23.45721 -46.01629 15605 ft 404 kts 21°
2026-05-05 04:00 -23.43993 -46.00761 15903 ft 403 kts 15°
2026-05-05 04:00 -23.40380 -45.99967 16307 ft 404 kts 357°
2026-05-05 04:00 -23.37537 -45.99850 16486 ft 410 kts 355°
2026-05-05 04:01 -23.34681 -45.99768 16864 ft 410 kts 355°
2026-05-05 04:01 -23.31828 -45.99687 17261 ft 411 kts 355°
2026-05-05 04:01 -23.28964 -45.99606 17569 ft 413 kts 355°
2026-05-05 04:01 -23.26081 -45.99518 17881 ft 415 kts 355°
2026-05-05 04:02 -23.23183 -45.99429 18199 ft 418 kts 355°
2026-05-05 04:02 -23.20272 -45.99330 18502 ft 420 kts 355°
2026-05-05 04:02 -23.17346 -45.99229 18764 ft 422 kts 355°
2026-05-05 04:02 -23.14403 -45.99125 19044 ft 424 kts 355°
2026-05-05 04:03 -23.11448 -45.99020 19328 ft 426 kts 355°
2026-05-05 04:03 -23.08475 -45.98915 19608 ft 428 kts 355°
2026-05-05 04:03 -23.05491 -45.98810 19913 ft 430 kts 355°
2026-05-05 04:03 -23.02532 -45.98707 20211 ft 432 kts 355°
2026-05-05 04:04 -22.99519 -45.98603 20512 ft 433 kts 355°
2026-05-05 04:04 -22.96499 -45.98499 20801 ft 435 kts 355°
2026-05-05 04:04 -22.93459 -45.98395 21093 ft 437 kts 355°
2026-05-05 04:04 -22.90417 -45.98276 21357 ft 440 kts 356°
2026-05-05 04:05 -22.87352 -45.97860 21569 ft 446 kts
2026-05-05 04:05 -22.84322 -45.97124 21964 ft 446 kts
2026-05-05 04:05 -22.81292 -45.96348 22287 ft 447 kts
2026-05-05 04:05 -22.78289 -45.95575 22551 ft 449 kts
2026-05-05 04:06 -22.75244 -45.94788 22839 ft 451 kts
2026-05-05 04:06 -22.72179 -45.93995 23149 ft 453 kts
2026-05-05 04:06 -22.69113 -45.93205 23424 ft 455 kts
2026-05-05 04:06 -22.66014 -45.92406 23728 ft 457 kts
2026-05-05 04:07 -22.62908 -45.91605 23995 ft 459 kts
2026-05-05 04:07 -22.59791 -45.90802 24231 ft 462 kts
2026-05-05 04:07 -22.56654 -45.89995 24464 ft 464 kts
2026-05-05 04:07 -22.53541 -45.89194 24696 ft 466 kts
2026-05-05 04:08 -22.50384 -45.88381 24946 ft 467 kts
2026-05-05 04:08 -22.47209 -45.87566 25208 ft 470 kts
2026-05-05 04:08 -22.44026 -45.86748 25451 ft 472 kts
2026-05-05 04:08 -22.40814 -45.85924 25691 ft 473 kts
2026-05-05 04:09 -22.37601 -45.85101 25930 ft 476 kts
2026-05-05 04:09 -22.34367 -45.84273 26167 ft 478 kts
2026-05-05 04:09 -22.31138 -45.83358 26317 ft 484 kts
2026-05-05 04:09 -22.28005 -45.81971 26534 ft 491 kts 20°
2026-05-05 04:10 -22.25113 -45.80046 26822 ft 494 kts 27°
2026-05-05 04:10 -22.22314 -45.77895 27139 ft 495 kts 28°
2026-05-05 04:10 -22.19532 -45.75686 27307 ft 498 kts 29°
2026-05-05 04:10 -22.16773 -45.73407 27507 ft 501 kts 30°
2026-05-05 04:11 -22.14023 -45.71072 27719 ft 503 kts 31°
2026-05-05 04:11 -22.11282 -45.68708 27928 ft 505 kts 31°
2026-05-05 04:11 -22.08539 -45.66330 28139 ft 507 kts 31°
2026-05-05 04:11 -22.05778 -45.63934 28339 ft 509 kts 31°
2026-05-05 04:12 -22.03005 -45.61538 28455 ft 513 kts 31°
2026-05-05 04:12 -22.00247 -45.59156 28627 ft 515 kts 31°
2026-05-05 04:12 -21.97439 -45.56729 28840 ft 517 kts 31°
2026-05-05 04:12 -21.94626 -45.54305 29021 ft 519 kts 30°
2026-05-05 04:13 -21.91799 -45.51875 29213 ft 521 kts 30°
2026-05-05 04:13 -21.88958 -45.49436 29390 ft 522 kts 30°
2026-05-05 04:13 -21.86114 -45.46994 29580 ft 524 kts 30°
2026-05-05 04:13 -21.83262 -45.44549 29743 ft 526 kts 30°
2026-05-05 04:14 -21.80389 -45.42086 29908 ft 527 kts 30°
2026-05-05 04:14 -21.77550 -45.39652 30069 ft 529 kts 30°
2026-05-05 04:14 -21.74668 -45.37180 30223 ft 530 kts 30°
2026-05-05 04:14 -21.71780 -45.34706 30382 ft 532 kts 30°
2026-05-05 04:15 -21.68880 -45.32225 30488 ft 533 kts 30°
2026-05-05 04:15 -21.65972 -45.29738 30632 ft 534 kts 30°
2026-05-05 04:15 -21.63063 -45.27249 30787 ft 535 kts 30°
2026-05-05 04:15 -21.60147 -45.24756 30909 ft 536 kts 30°
2026-05-05 04:16 -21.57217 -45.22253 31058 ft 537 kts 30°
2026-05-05 04:16 -21.54291 -45.19756 31152 ft 538 kts 30°
2026-05-05 04:16 -21.51351 -45.17245 31311 ft 538 kts 30°
2026-05-05 04:16 -21.48411 -45.14734 31464 ft 539 kts 30°
2026-05-05 04:17 -21.42572 -45.09760 31676 ft 540 kts 30°
2026-05-05 04:17 -21.36663 -45.04734 31845 ft 542 kts 30°
2026-05-05 04:18 -21.30742 -44.99697 32041 ft 544 kts 30°
2026-05-05 04:18 -21.24804 -44.94648 32217 ft 545 kts 30°
2026-05-05 04:19 -21.21831 -44.92123 32330 ft 545 kts 30°
2026-05-05 04:19 -21.18856 -44.89601 32410 ft 546 kts 30°
2026-05-05 04:19 -21.12894 -44.84555 32617 ft 546 kts 30°
2026-05-05 04:20 -21.09913 -44.82031 32746 ft 545 kts 30°
2026-05-05 04:20 -21.06972 -44.79548 32867 ft 545 kts 30°
2026-05-05 04:20 -21.03998 -44.77041 33013 ft 543 kts 29°
2026-05-05 04:20 -21.00983 -44.74620 33162 ft 541 kts 26°
2026-05-05 04:21 -20.94809 -44.69992 33207 ft 542 kts 25°
2026-05-05 04:21 -20.88610 -44.65371 33379 ft 541 kts 25°
2026-05-05 04:22 -20.82448 -44.60729 33525 ft 541 kts 26°
2026-05-05 04:22 -20.76369 -44.56114 33803 ft 537 kts 25°
2026-05-05 04:23 -20.70261 -44.51501 33834 ft 537 kts 25°
2026-05-05 04:23 -20.64150 -44.46870 33888 ft 538 kts 25°
2026-05-05 04:24 -20.58104 -44.42272 33986 ft 536 kts 25°
2026-05-05 04:25 -20.48993 -44.35372 34107 ft 535 kts 25°
2026-05-05 04:25 -20.42918 -44.30775 34158 ft 535 kts 25°
2026-05-05 04:26 -20.36910 -44.26080 34214 ft 535 kts 26°
2026-05-05 04:26 -20.30961 -44.21325 34250 ft 534 kts 26°
2026-05-05 04:27 -20.25043 -44.16614 34246 ft 534 kts 26°
2026-05-05 04:27 -20.19085 -44.11886 34304 ft 532 kts 26°
2026-05-05 04:28 -20.14145 -44.07982 34326 ft 532 kts 26°
2026-05-05 04:28 -20.08186 -44.03284 34318 ft 532 kts 26°
2026-05-05 04:29 -20.02233 -43.98608 34316 ft 533 kts 25°
2026-05-05 04:29 -19.96326 -43.93950 34427 ft 530 kts 25°
2026-05-05 04:30 -19.90373 -43.89281 34370 ft 531 kts 25°
2026-05-05 04:30 -19.84429 -43.84611 34361 ft 531 kts 25°
2026-05-05 04:31 -19.80594 -43.81720 34429 ft 528 kts 23°
2026-05-05 04:32 -19.78565 -43.80254 34421 ft 528 kts 22°
2026-05-05 04:33 -19.72458 -43.75911 34359 ft 529 kts 22°
2026-05-05 04:33 -19.66363 -43.71541 34543 ft 524 kts 22°
2026-05-05 04:33 -19.63394 -43.69414 34750 ft 518 kts 21°
2026-05-05 04:34 -19.60413 -43.67304 34881 ft 514 kts 20°
2026-05-05 04:34 -19.54502 -43.63140 35071 ft 506 kts 20°
2026-05-05 04:35 -19.48687 -43.59019 35228 ft 500 kts 20°
2026-05-05 04:35 -19.42942 -43.54920 35232 ft 495 kts 19°
2026-05-05 04:36 -19.37264 -43.50857 35230 ft 490 kts 19°
2026-05-05 04:36 -19.31619 -43.46895 35286 ft 480 kts 14°
2026-05-05 04:37 -19.25594 -43.44052 35240 ft 466 kts
2026-05-05 04:37 -19.22531 -43.43081 35228 ft 452 kts 356°
2026-05-05 04:37 -19.19486 -43.42344 35214 ft 446 kts 354°
2026-05-05 04:38 -19.13525 -43.40844 34888 ft 447 kts 357°
2026-05-05 04:38 -19.10485 -43.39935 34449 ft 458 kts
2026-05-05 04:38 -19.07435 -43.38887 34258 ft 463 kts
2026-05-05 04:39 -19.01377 -43.36623 34272 ft 458 kts
2026-05-05 04:39 -18.95321 -43.34722 34267 ft 450 kts 356°
2026-05-05 04:39 -18.92248 -43.34132 34107 ft 448 kts 351°
2026-05-05 04:40 -18.89189 -43.33856 33864 ft 447 kts 345°
2026-05-05 04:40 -18.86085 -43.33894 33704 ft 444 kts 340°
2026-05-05 04:40 -18.83032 -43.34242 33678 ft 439 kts 334°
2026-05-05 04:41 -18.77206 -43.35721 33867 ft 422 kts 325°